• In Sweden
  • List of Countries
  • For 7 days
  • Water Temperature
  • Satellite Maps
  • Weather Map
  • Weather Widgets
  • user-avatar
    Login

    Hourly Weather Vratsa

    Today, 23 September, Sunday

    Time Temperature Precipitation Wind Pressure Humidity
    00:00 +18°C° 0 mm 2 mps 712 mmHg 60%
    01:00 +17°C° 0 mm 2 mps 711 mmHg 63%
    02:00 +17°C° 0 mm 2 mps 711 mmHg 63%
    03:00 +16°C° 0 mm 2 mps 711 mmHg 65%
    04:00 +16°C° 0 mm 2 mps 711 mmHg 67%
    05:00 +16°C° 0 mm 2 mps 711 mmHg 69%
    06:00 +17°C° 0 mm 2 mps 712 mmHg 66%
    07:00 +18°C° 0 mm 2 mps 712 mmHg 63%
    08:00 +19°C° 0 mm 2 mps 712 mmHg 56%
    09:00 +21°C° 0 mm 2 mps 713 mmHg 51%
    10:00 +24°C° 0 mm 2 mps 713 mmHg 45%
    11:00 +26°C° 0 mm 2 mps 713 mmHg 40%
    12:00 +27°C° 0 mm 2 mps 713 mmHg 38%
    13:00 +28°C° 0 mm 2 mps 713 mmHg 36%
    14:00 +28°C° 0 mm 2 mps 713 mmHg 36%
    15:00 +28°C° 0 mm 2 mps 712 mmHg 37%
    16:00 +28°C° 0 mm 2 mps 712 mmHg 38%
    17:00 +27°C° 0 mm 2 mps 712 mmHg 38%
    18:00 +25°C° 0 mm 1 mps 712 mmHg 45%
    19:00 +23°C° 0 mm 1 mps 711 mmHg 51%
    20:00 +21°C° 0 mm 1 mps 711 mmHg 57%
    21:00 +21°C° 0 mm 1 mps 711 mmHg 58%
    22:00 +20°C° 0 mm 1 mps 711 mmHg 59%
    23:00 +20°C° 0 mm 1 mps 710 mmHg 60%

    Tomorrow, 24 September, Monday

    Time Temperature Precipitation Wind Pressure Humidity
    00:00 +19°C° 0 mm 2 mps 710 mmHg 60%
    01:00 +18°C° 0 mm 2 mps 709 mmHg 60%
    02:00 +18°C° 0 mm 2 mps 709 mmHg 60%
    03:00 +18°C° 0 mm 2 mps 709 mmHg 59%
    04:00 +17°C° 0 mm 2 mps 708 mmHg 58%
    05:00 +17°C° 0 mm 2 mps 708 mmHg 58%
    06:00 +18°C° 0 mm 2 mps 708 mmHg 55%
    07:00 +19°C° 0 mm 2 mps 708 mmHg 52%
    08:00 +20°C° 0 mm 2 mps 708 mmHg 49%
    09:00 +22°C° 0 mm 3 mps 708 mmHg 43%
    10:00 +26°C° 0 mm 4 mps 708 mmHg 36%
    11:00 +28°C° 0 mm 5 mps 708 mmHg 30%
    12:00 +27°C° 0 mm 6 mps 709 mmHg 34%
    13:00 +26°C° 0 mm 7 mps 709 mmHg 37%
    14:00 +24°C° 0 mm 9 mps 709 mmHg 40%
    15:00 +21°C° 0 mm 9 mps 709 mmHg 44%
    16:00 +18°C° 0 mm 8 mps 710 mmHg 49%
    17:00 +15°C° 0 mm 8 mps 710 mmHg 53%
    18:00 +14°C° 0 mm 7 mps 711 mmHg 56%
    19:00 +11°C° 0 mm 6 mps 712 mmHg 60%
    20:00 +10°C° 0 mm 6 mps 713 mmHg 64%
    21:00 +10°C° 0 mm 5 mps 714 mmHg 64%
    22:00 +9°C° 0 mm 5 mps 714 mmHg 64%
    23:00 +9°C° 0 mm 5 mps 715 mmHg 64%

    Day after tomorrow, 25 September, Tuesday

    Time Temperature Precipitation Wind Pressure Humidity
    00:00 +8°C° 0 mm 4 mps 715 mmHg 66%
    01:00 +8°C° 0 mm 4 mps 715 mmHg 68%
    02:00 +7°C° 0 mm 4 mps 715 mmHg 70%
    03:00 +6°C° 0 mm 4 mps 715 mmHg 71%
    04:00 +6°C° 0 mm 4 mps 715 mmHg 72%
    05:00 +5°C° 0 mm 3 mps 715 mmHg 73%
    06:00 +6°C° 0 mm 4 mps 716 mmHg 67%
    07:00 +7°C° 0 mm 4 mps 716 mmHg 62%
    08:00 +8°C° 0 mm 5 mps 717 mmHg 56%
    09:00 +9°C° 0 mm 5 mps 717 mmHg 48%
    10:00 +10°C° 0 mm 5 mps 717 mmHg 40%
    11:00 +13°C° 0 mm 6 mps 717 mmHg 32%
    12:00 +14°C° 0 mm 6 mps 717 mmHg 30%
    13:00 +14°C° 0 mm 6 mps 717 mmHg 28%
    14:00 +15°C° 0 mm 6 mps 717 mmHg 25%
    15:00 +14°C° 0 mm 5 mps 716 mmHg 26%
    16:00 +14°C° 0 mm 5 mps 716 mmHg 26%
    17:00 +13°C° 0 mm 5 mps 716 mmHg 27%
    18:00 +11°C° 0 mm 4 mps 717 mmHg 31%
    19:00 +9°C° 0 mm 3 mps 717 mmHg 35%
    20:00 +7°C° 0 mm 2 mps 718 mmHg 39%
    21:00 +7°C° 0 mm 2 mps 718 mmHg 42%
    22:00 +6°C° 0 mm 2 mps 719 mmHg 45%
    23:00 +6°C° 0 mm 2 mps 719 mmHg 48%

    26 September, Wednesday

    Time Temperature Precipitation Wind Pressure Humidity
    00:00 +5°C° 0 mm 2 mps 719 mmHg 51%
    01:00 +5°C° 0 mm 2 mps 719 mmHg 54%
    02:00 +5°C° 0 mm 1 mps 719 mmHg 57%
    03:00 +5°C° 0 mm 1 mps 719 mmHg 59%
    04:00 +4°C° 0 mm 1 mps 719 mmHg 62%
    05:00 +4°C° 0 mm 1 mps 719 mmHg 64%
    06:00 +5°C° 0 mm 1 mps 720 mmHg 60%
    07:00 +6°C° 0 mm 1 mps 720 mmHg 56%
    08:00 +7°C° 0 mm 1 mps 721 mmHg 52%
    09:00 +8°C° 0 mm 2 mps 721 mmHg 47%
    10:00 +10°C° 0 mm 2 mps 721 mmHg 42%
    11:00 +12°C° 0 mm 3 mps 721 mmHg 36%
    12:00 +12°C° 0 mm 3 mps 721 mmHg 34%
    13:00 +13°C° 0 mm 3 mps 720 mmHg 33%
    14:00 +13°C° 0 mm 3 mps 720 mmHg 31%
    15:00 +13°C° 0 mm 3 mps 720 mmHg 32%
    16:00 +12°C° 0 mm 3 mps 719 mmHg 33%
    17:00 +12°C° 0 mm 3 mps 719 mmHg 34%
    18:00 +10°C° 0 mm 2 mps 719 mmHg 39%
    19:00 +8°C° 0 mm 2 mps 719 mmHg 45%
    20:00 +6°C° 0 mm 2 mps 720 mmHg 51%
    21:00 +5°C° 0 mm 2 mps 720 mmHg 51%
    22:00 +6°C° 0 mm 1 mps 720 mmHg 51%
    23:00 +6°C° 0 mm 1 mps 720 mmHg 51%

    27 September, Thursday

    Time Temperature Precipitation Wind Pressure Humidity
    00:00 +6°C° 0 mm 1 mps 720 mmHg 52%
    01:00 +5°C° 0 mm 1 mps 720 mmHg 53%
    02:00 +5°C° 0 mm 1 mps 719 mmHg 53%
    03:00 +5°C° 0 mm 1 mps 719 mmHg 54%
    04:00 +4°C° 0 mm 1 mps 719 mmHg 55%
    05:00 +4°C° 0 mm 1 mps 719 mmHg 55%
    06:00 +6°C° 0 mm 1 mps 719 mmHg 51%
    07:00 +7°C° 0 mm 1 mps 719 mmHg 47%
    08:00 +8°C° 0 mm 1 mps 719 mmHg 43%
    09:00 +10°C° 0 mm 1 mps 718 mmHg 38%
    10:00 +12°C° 0 mm 1 mps 718 mmHg 34%
    11:00 +14°C° 0 mm 2 mps 718 mmHg 29%
    12:00 +15°C° 0 mm 2 mps 718 mmHg 27%
    13:00 +16°C° 0 mm 2 mps 717 mmHg 25%
    14:00 +17°C° 0 mm 3 mps 716 mmHg 23%
    15:00 +16°C° 0 mm 2 mps 716 mmHg 24%
    16:00 +16°C° 0 mm 2 mps 715 mmHg 25%
    17:00 +15°C° 0 mm 2 mps 715 mmHg 26%
    18:00 +13°C° 0 mm 2 mps 715 mmHg 30%
    19:00 +11°C° 0 mm 1 mps 714 mmHg 35%
    20:00 +9°C° 0 mm 1 mps 714 mmHg 39%
    21:00 +9°C° 0 mm 1 mps 714 mmHg 40%
    22:00 +8°C° 0 mm 1 mps 714 mmHg 40%
    23:00 +8°C° 0 mm 1 mps 714 mmHg 41%

    28 September, Friday

    Time Temperature Precipitation Wind Pressure Humidity
    00:00 +7°C° 0 mm 1 mps 714 mmHg 41%
    01:00 +7°C° 0 mm 1 mps 714 mmHg 41%
    02:00 +7°C° 0 mm 1 mps 713 mmHg 41%
    03:00 +7°C° 0 mm 1 mps 713 mmHg 42%
    04:00 +6°C° 0 mm 1 mps 713 mmHg 42%
    05:00 +6°C° 0 mm 1 mps 712 mmHg 42%
    06:00 +7°C° 0 mm 1 mps 712 mmHg 39%
    07:00 +9°C° 0 mm 1 mps 713 mmHg 37%
    08:00 +10°C° 0 mm 1 mps 713 mmHg 34%
    09:00 +12°C° 0 mm 1 mps 713 mmHg 30%
    10:00 +15°C° 0 mm 2 mps 712 mmHg 26%
    11:00 +17°C° 0 mm 2 mps 712 mmHg 22%
    12:00 +18°C° 0 mm 2 mps 712 mmHg 20%
    13:00 +19°C° 0 mm 3 mps 711 mmHg 19%
    14:00 +20°C° 0 mm 3 mps 711 mmHg 18%
    15:00 +19°C° 0 mm 3 mps 711 mmHg 20%
    16:00 +19°C° 0 mm 2 mps 710 mmHg 21%
    17:00 +18°C° 0 mm 2 mps 710 mmHg 23%
    18:00 +16°C° 0 mm 2 mps 710 mmHg 27%
    19:00 +13°C° 0 mm 1 mps 710 mmHg 31%
    20:00 +11°C° 0 mm 1 mps 710 mmHg 35%
    21:00 +11°C° 0 mm 1 mps 710 mmHg 37%
    22:00 +10°C° 0 mm 1 mps 710 mmHg 38%
    23:00 +10°C° 0 mm 1 mps 710 mmHg 40%
    Show more